This is the latest recevied weather packets stored in our database for station/object W4MSI. If no packets are shown the sender has not sent any weather packets the latest 1 day(s).
| Time | Temp. | Humidity | Pressure | Rain* | Wind** | Luminosity | Snow |
|---|---|---|---|---|---|---|---|
| 1777998418 | 17.22° C | 83% | 1010.3 hPa | 3.05 mm | 2.68 m/s, 187° | 240 W/m² | - |
| 1777998115 | 17.22° C | 80% | 1010.5 hPa | 1.78 mm | 2.68 m/s, 169° | 245 W/m² | - |
| 1777997812 | 17.78° C | 79% | 1010.5 hPa | 1.78 mm | 2.24 m/s, 208° | 215 W/m² | - |
| 1777997509 | 17.78° C | 74% | 1010.7 hPa | 0 mm | 4.47 m/s, 196° | 96 W/m² | - |
| 1777997207 | 18.33° C | 73% | 1010.9 hPa | 0 mm | 1.79 m/s, 195° | 60 W/m² | - |
| 1777996904 | 18.33° C | 72% | 1010.9 hPa | 0 mm | 2.68 m/s, 201° | 80 W/m² | - |
| 1777996600 | 18.33° C | 72% | 1011.1 hPa | 0 mm | 0.89 m/s, 214° | 77 W/m² | - |
| 1777996296 | 18.33° C | 71% | 1011.2 hPa | 0 mm | 1.79 m/s, 217° | 43 W/m² | - |
| 1777995993 | 18.33° C | 71% | 1011.3 hPa | 0 mm | 1.79 m/s, 217° | 48 W/m² | - |
| 1777995689 | 18.33° C | 71% | 1011 hPa | 0 mm | 3.13 m/s, 206° | 39 W/m² | - |
| 1777995386 | 18.33° C | 71% | 1010.9 hPa | 0 mm | 1.79 m/s, 189° | 93 W/m² | - |
| 1777995084 | 18.33° C | 71% | 1010.8 hPa | 0 mm | 0.45 m/s, 157° | 73 W/m² | - |
| 1777994780 | 18.33° C | 70% | 1010.8 hPa | 0 mm | 1.79 m/s, 207° | 65 W/m² | - |
| 1777994476 | 18.33° C | 71% | 1010.9 hPa | 0 mm | 2.24 m/s, 208° | 67 W/m² | - |
| 1777994171 | 18.33° C | 71% | 1010.9 hPa | 0 mm | 1.34 m/s, 220° | 89 W/m² | - |
| 1777993869 | 18.33° C | 70% | 1010.8 hPa | 0 mm | 2.68 m/s, 219° | 95 W/m² | - |
| 1777993565 | 18.33° C | 70% | 1010.6 hPa | 0 mm | 3.13 m/s, 190° | 110 W/m² | - |
| 1777993262 | 18.33° C | 70% | 1010.7 hPa | 0 mm | 2.68 m/s, 202° | 139 W/m² | - |
| 1777992957 | 18.33° C | 70% | 1010.8 hPa | 0 mm | 1.79 m/s, 210° | 105 W/m² | - |
| 1777992656 | 18.33° C | 69% | 1010.7 hPa | 0 mm | 3.58 m/s, 190° | 136 W/m² | - |
| 1777992353 | 17.78° C | 70% | 1010.7 hPa | 0 mm | 2.24 m/s, 245° | 139 W/m² | - |
| 1777992051 | 18.33° C | 70% | 1010.6 hPa | 0 mm | 1.79 m/s, 189° | 101 W/m² | - |
| 1777991748 | 18.33° C | 69% | 1010.5 hPa | 0 mm | 3.13 m/s, 256° | 119 W/m² | - |
| 1777991445 | 18.33° C | 69% | 1010.4 hPa | 0 mm | 2.68 m/s, 194° | 170 W/m² | - |
| 1777991142 | 18.33° C | 68% | 1010.5 hPa | 0 mm | 2.68 m/s, 200° | 185 W/m² | - |
* Rain latest hour (hover to see other rain measurements)
** Current wind speed in m/s (hover to see current wind gust speed)